Home   Weather   Upernavik   Past weeks

Flag for Greenland Past Weather in Upernavik, Greenland — Yesterday and Last 2 Weeks

Now
-1 °F

Frigid.


Feels Like: N/A
Forecast: 7 / 14 °F
Wind: N/A

Location: Edderfugle Oeer

Current Time: Dec 10, 2016 at 9:38:11 pm

Latest Report: Dec 10, 2016 at 8:00 pm


Visibility: N/A

Pressure: 29.66 "Hg

Humidity: 85%

Dew Point: -4 °F

Location of UpernavikLocation

Past Weather in Upernavik — Graph

°F

Upernavik Temperature Yesterday

Maximum temperature yesterday: 5 °F (at 12:00 am)
Minimum temperature yesterday: 2 °F (at 5:00 pm)
Average temperature yesterday: 3 °F

High & Low Weather Summary for the Past Weeks

 TemperatureHumidityPressure
High17 °F (Dec 1, 6:00 pm)92% (Nov 30, 6:00 pm)30.26 "Hg (Nov 30, 6:00 pm)
Low-1 °F (Dec 10, 7:00 pm)49% (Dec 1, 8:00 pm)29.47 "Hg (Dec 8, 2:00 am)
Average9 °F76%29.87 "Hg
* Reported Nov 25 8:00 pm — Dec 10 8:00 pm, Upernavik, Weather by CustomWeather, © 2016

Note: Actual official high and low records may vary slightly from our data, if they occured in-between our weather recording intervals... More about our weather records

Advertising

Upernavik Weather History for the Previous 24 Hours

Scroll right to see more
 ConditionsComfort  
Time TempWeatherWind HumidityBarometerVisibility
8:00 pm
Sat, Dec 10
-1 °FFrigid.N/A85%29.66 "HgN/A
7:00 pm-1 °FFrigid.N/A85%29.67 "HgN/A
6:00 pm0 °FFrigid.17 mph85%29.68 "HgN/A
5:00 pm0 °FFrigid.28 mph85%29.68 "HgN/A
4:00 pm1 °FFrigid.28 mph86%29.68 "HgN/A
3:00 pm1 °FFrigid.26 mph86%29.68 "HgN/A
2:00 pm2 °FFrigid.25 mph87%29.68 "HgN/A
1:00 pm1 °FFrigid.21 mph86%29.70 "HgN/A
12:00 pm2 °FFrigid.20 mph86%29.70 "HgN/A
11:00 am2 °FFrigid.20 mph86%29.72 "HgN/A
10:00 am2 °FFrigid.18 mph87%29.72 "HgN/A
9:00 am3 °FFrigid.18 mph87%29.72 "HgN/A
8:00 am3 °FFrigid.20 mph87%29.73 "HgN/A
7:00 am4 °FFrigid.20 mph87%29.72 "HgN/A
6:00 am4 °FFrigid.20 mph87%29.72 "HgN/A
5:00 am4 °FFrigid.20 mph87%29.71 "HgN/A
4:00 am4 °FFrigid.21 mph87%29.70 "HgN/A
3:00 am4 °FFrigid.18 mph88%29.70 "HgN/A
2:00 am5 °FFrigid.16 mph88%29.69 "HgN/A
1:00 am4 °FFrigid.20 mph87%29.69 "HgN/A
12:00 am4 °FFrigid.21 mph88%29.69 "HgN/A
11:00 pm
Fri, Dec 9
4 °FFrigid.12 mph85%29.69 "HgN/A
10:00 pm4 °FFrigid.18 mph85%29.69 "HgN/A
9:00 pm2 °FFrigid.13 mph84%29.71 "HgN/A
Weather by CustomWeather, © 2016

See weather overviewHow to use our weather pages